Weather Roundup
Issued by NWS

Home | Current Version | Previous Version | Graphics & Text | Print | Product List | Glossary Off
Versions: 1 2 3 4 5 6 7 8 9 10 11 12 13 14 15 16 17 18 19 20 21 22 23 24 25 26 27 28 29 30 31 32 33 34 35 36 37 38 39 40 41 42 43 44 45 46 47 48 49 50

000
NZUS93 KARX 170910
HRRWXR

CURRENT HOURLY OBSERVATIONS ACROSS
MUCH OF THE UPPER MISSISSIPPI VALLEY
NATIONAL WEATHER SERVICE LA CROSSE WI
300 AM CST TUE JAN 17 2017


...SOUTHEAST MINNESOTA...


CITY           SKY/WX    TMP DP  RH WIND       PRES   REMARKS
ROCHESTER      FRZ RAIN  31  31 100 N10       29.87S FOG     WCI  22
ROCHESTER/MAYO CLOUDY    32  32 100 NW3       29.88S
WINONA         CLOUDY    34  34 100 NW6       29.90R FOG     WCI  29
AUSTIN         CLOUDY    32  30  93 N5        29.88S FOG     WCI  27
ALBERT LEA     CLOUDY    32  30  93 N6        29.89S FOG     WCI  26
DODGE CENTER   MIX PCPN  30  30 100 CALM      29.88S
PRESTON        CLOUDY    31  30  96 N5        29.87R FOG     WCI  27
OWATONNA       LGT SNOW  30  28  93 NW5       29.91R WCI  25
FARIBAULT      MIX PCPN  30  28  93 NW5       29.93R WCI  25
$$

...ELSEWHERE IN MINNESOTA...


CITY           SKY/WX    TMP DP  RH WIND       PRES   REMARKS
MINNEAPOLIS    LGT SNOW  31  28  89 NW9       29.94S FOG     WCI  23
INTNL FALLS    CLOUDY    -3  -8  79 CALM      29.97S
DULUTH         CLOUDY    19  14  81 E5        29.96S WCI  12
RED WING       MIX PCPN  34  32  93 CALM      29.91S
REDWOOD FALLS  CLOUDY    25  23  92 NW9       29.98R FOG     WCI  15
MANKATO        LGT SNOW  29  27  92 N10       29.95R FOG     WCI  20
WORTHINGTON    CLOUDY    28  27  96 N12       29.96R FOG     WCI  18
FAIRMONT       FOG       30  28  93 N16       29.94R VSB 3/4 WCI  19
$$

...SOUTHWEST WISCONSIN...


CITY           SKY/WX    TMP DP  RH WIND       PRES   REMARKS
LA CROSSE      CLOUDY    36  33  89 NW7       29.87S WCI  30
PRAIRIE DU CHI CLOUDY    33  32  96 CALM      29.84S FOG
BOSCOBEL       FOG       34  33  96 E5        29.84S VSB 1   WCI  30
LONE ROCK      CLOUDY    35  33  92 CALM      29.84R
PLATTEVILLE    CLOUDY    34  34 100 N5        29.82R WCI  30
FORT MC COY    CLOUDY    32  32 100 NE3       29.87S FOG
CAMP DOUGLAS   CLOUDY    33  32  98 N3        29.85S FOG
MAUSTON-NEW LI CLOUDY    33  32  99 CALM      29.84S FOG
VIROQUA        CLOUDY    32  32 100 CALM      29.83S VSB 3/4
WIS DELLS      FOG       32  32 100 E8        29.82S VSB 3/4 WCI  25
$$

...ELSEWHERE IN WISCONSIN...


CITY           SKY/WX    TMP DP  RH WIND       PRES   REMARKS
MILWAUKEE      LGT RAIN  38  36  92 E7        29.79F VSB 1   WCI  33
MADISON        MIX PCPN  34  33  96 N6        29.81S FOG     WCI  29
GREEN BAY      CLOUDY    35  34  96 NE15      29.88F FOG     WCI  25
EAU CLAIRE     LGT SNOW  33  32  96 N7        29.90S FOG     WCI  27
BLACK RVR FLS  CLOUDY    33  33 100 NE3       29.86F FOG
MEDFORD        MIX PCPN  32  31  96 NE6       29.87F WCI  26
WAUSAU         CLOUDY    33  32  96 NE3       29.87F FOG
WIS RAPIDS     NOT AVBL
MARSHFIELD     CLOUDY    33  31  92 NE10      29.85S FOG     WCI  25
RICE LAKE      LGT SNOW  32  32  98 N8        29.94F WCI  25
$$

...NORTHEAST IOWA...


CITY           SKY/WX    TMP DP  RH WIND       PRES   REMARKS
WATERLOO       CLOUDY    33  32  96 NW7       29.87R FOG     WCI  27
DUBUQUE        FOG       33  33 100 N6        29.81S VSB 1/4 WCI  28
DECORAH        FOG       32  32 100 N6        29.84S VSB 1/4 WCI  26
MASON CITY     CLOUDY    32  31  96 N12       29.89S WCI  23
CHARLES CITY   MIX PCPN  32  32 100 MISG      29.87S
OELWEIN        FOG       32  32 100 N7        29.86R VSB 1/4 WCI  26
$$

...ELSEWHERE IN IOWA...


CITY           SKY/WX    TMP DP  RH WIND       PRES   REMARKS
DES MOINES     DRIZZLE   34  33  96 NW10      29.92R FOG     WCI  26
IOWA CITY      CLOUDY    35  34  96 NW3       29.87R FOG
FORT DODGE     CLOUDY    32  28  86 CALM      29.93R
MARSHALLTOWN   CLOUDY    32  32 100 NW9       29.87R FOG     WCI  24
CEDAR RAPIDS   FOG       33  33 100 NW6       29.84R VSB 1/2 WCI  28
$$

...NORTHERN ILLINOIS...


CITY           SKY/WX    TMP DP  RH WIND       PRES   REMARKS
CHICAGO-OHARE  CLOUDY    38  38 100 NW6       29.73F FOG     WCI  33
CHICAGO-MIDWAY LGT RAIN  38  37  97 CALM      29.73F FOG
MOLINE         FOG       36  34  92 W6        29.83R VSB 1/2 WCI  31
ROCKFORD       RAIN      37  35  92 NW3       29.80R FOG
PEORIA         FOG       45  45 100 W8        29.84R VSB 3/4
$$

NOTE: "FAIR" INDICATES FEW OR NO CLOUDS BELOW 12,000 FEET WITH NO
SIGNIFICANT WEATHER AND/OR OBSTRUCTIONS TO VISIBILITY. WIND
SPEEDS ARE IN MILES-PER-HOUR.




USA.gov is the U.S. government's official web portal to all federal, state and local government web resources and services.